Content
SEND FEEDBACK

Daily
Averages
Monthly
Summary
Indonesia

HASANUDIN, INDONESIA


Home > Asia > Indonesia
Elevation: 46 feet     Latitude: 05 04S     Longitude: 119 33E

WEATHER
 
SELECT A DAY
Number of Records: 207,235;   Date Range: 9/17/97 - 12/18/14
 
SHARE

PRINT THIS DATA

[ ← Previous Day ]
WEATHER ALMANAC - JUNE 28, 2013
[ Next Day → ]
[ °C ]   °F
We're sorry. There is no daily almanac available for Hasanudin, Indonesia on June 28, 2013.
WEATHER BY HOUR - JUNE 28, 2013
[ °C ]   °F
Local TimeTemperatureDewpointHumidityBarometerVisibilityWind DirectionWind SpeedGust SpeedPrecipitationEventsConditions
12:30 AM75.2 °F73.4 °F94 %29.86 in5.0 miESE (110°)3.5 mphPartly Cloudy
1:00 AM73.4 °F73.4 °F100 %29.86 in5.0 miENE (70°)3.5 mphPartly Cloudy
1:30 AM73.4 °F73.4 °F100 %29.86 in5.0 miVariable2.3 mphPartly Cloudy
2:00 AM74.0 °F72.0 °F94 %29.87 in5.0 miSouth (170°)1.2 mphScattered Clouds
2:00 AM73.4 °F73.4 °F100 %29.86 in5.0 miVariable1.2 mphPartly Cloudy
2:30 AM73.4 °F73.4 °F100 %29.86 in5.0 miVariable1.2 mphPartly Cloudy
3:00 AM73.4 °F73.4 °F100 %29.86 in5.0 miVariable2.3 mphPartly Cloudy
3:30 AM73.4 °F71.6 °F94 %29.83 in5.0 miESE (120°)3.5 mphPartly Cloudy
4:00 AM73.4 °F71.6 °F94 %29.83 in5.0 miSSE (150°)3.5 mphPartly Cloudy
4:30 AM73.4 °F71.6 °F94 %29.83 in5.0 miVariable2.3 mphPartly Cloudy
5:00 AM73.0 °F72.0 °F95 %29.84 in5.0 miCalmScattered Clouds
5:00 AM73.4 °F71.6 °F94 %29.83 in5.0 miCalmPartly Cloudy
5:30 AM73.4 °F71.6 °F94 %29.83 in5.0 miCalmPartly Cloudy
6:00 AM73.4 °F71.6 °F94 %29.83 in5.0 miCalmPartly Cloudy
6:30 AM73.4 °F71.6 °F94 %29.83 in5.6 miCalmPartly Cloudy
7:00 AM73.4 °F71.6 °F94 %29.86 in6.2 miCalmPartly Cloudy
7:30 AM73.4 °F71.6 °F94 %29.86 in5.6 miCalmPartly Cloudy
8:00 AM75.0 °F72.0 °F88 %29.88 in6.0 miCalmScattered Clouds
8:00 AM75.2 °F71.6 °F89 %29.86 in5.6 miCalmPartly Cloudy
8:30 AM75.2 °F73.4 °F94 %29.89 in5.6 miVariable1.2 mphPartly Cloudy
9:00 AM77.0 °F73.4 °F89 %29.89 in5.6 miESE (120°)3.5 mphPartly Cloudy
9:30 AM77.0 °F73.4 °F89 %29.86 in6.2 miVariable1.2 mphPartly Cloudy
10:00 AM78.8 °F73.4 °F83 %29.89 in6.2 miVariable1.2 mphPartly Cloudy
10:30 AM80.6 °F77.0 °F89 %29.89 in6.2 miESE (110°)3.5 mphPartly Cloudy
11:00 AM83.0 °F75.0 °F71 %29.88 in6.0 miSSE (160°)3.5 mphScattered Clouds
11:00 AM82.4 °F75.2 °F79 %29.86 in6.2 miSSE (160°)3.5 mphPartly Cloudy
11:30 AM86.0 °F75.2 °F70 %29.86 in6.2 miVariable2.3 mphPartly Cloudy
12:00 PM86.0 °F75.2 °F70 %29.83 in6.2 miNorth (10°)4.6 mphPartly Cloudy
12:30 PM87.8 °F75.2 °F66 %29.83 inNorth (350°)5.8 mphClear
1:00 PM89.6 °F73.4 °F59 %29.83 in5.6 miNW (320°)5.8 mphPartly Cloudy
1:30 PM87.8 °F75.2 °F66 %29.80 in5.6 miNW (310°)4.6 mphPartly Cloudy
2:00 PM86.0 °F76.0 °F66 %29.81 in6.0 miNW (310°)5.8 mphScattered Clouds
2:00 PM86.0 °F77.0 °F74 %29.80 in5.6 miNW (310°)5.8 mphPartly Cloudy
2:30 PM84.2 °F77.0 °F79 %29.80 in5.6 miNW (320°)6.9 mphPartly Cloudy
3:00 PM84.2 °F77.0 °F79 %29.80 in5.6 miNW (320°)4.6 mphScattered Clouds
3:30 PM82.4 °F77.0 °F84 %29.80 in5.0 miNorth (350°)6.9 mphScattered Clouds
3:34 PM80.6 °F77.0 °F89 %5.0 miNNE (30°)6.9 mphThunderstormThunderstorm
3:36 PM80.6 °F77.0 °F89 %5.0 miNNE (30°)6.9 mphThunderstormThunderstorm
4:00 PM80.6 °F77.0 °F89 %4.3 miENE (70°)4.6 mphThunderstormThunderstorm
4:13 PM77.0 °F35.6 °F22 %29.83 in3.1 miESE (120°)10.4 mph21.9 mphRain-ThunderstormLight Thunderstorms and Rain
4:30 PM75.2 °F73.4 °F94 %3.1 miESE (120°)11.5 mphRain-ThunderstormLight Thunderstorms and Rain
5:00 PM74.0 °F73.0 °F97 %29.85 in4.0 miESE (110°)4.6 mphRainLight Rain
5:00 PM73.4 °F73.4 °F100 %29.83 in4.3 miESE (110°)4.6 mphRainLight Rain
5:30 PM73.4 °F73.4 °F100 %29.83 in5.6 miEast (90°)4.6 mphScattered Clouds
6:00 PM73.4 °F73.4 °F100 %29.83 in5.6 miVariable1.2 mphPartly Cloudy
6:30 PM73.4 °F73.4 °F100 %29.86 in5.6 miCalmPartly Cloudy
7:00 PM75.2 °F73.4 °F94 %29.86 in5.6 miCalmPartly Cloudy
7:30 PM75.2 °F73.4 °F94 %29.86 in5.6 miCalmPartly Cloudy
8:00 PM75.0 °F74.0 °F98 %29.89 in5.0 miCalmPartly Cloudy
8:00 PM75.2 °F75.2 °F100 %29.89 in5.0 miCalmPartly Cloudy
8:30 PM75.2 °F75.2 °F100 %29.89 in5.0 miCalmPartly Cloudy
9:00 PM75.2 °F73.4 °F94 %29.89 in5.0 miCalmPartly Cloudy
9:30 PM75.2 °F75.2 °F100 %29.89 in5.0 miVariable1.2 mphPartly Cloudy
10:00 PM75.2 °F75.2 °F100 %29.89 in5.0 miCalmPartly Cloudy
10:30 PM75.2 °F73.4 °F94 %29.89 in5.0 miENE (60°)1.2 mphPartly Cloudy
11:00 PM74.0 °F74.0 °F100 %29.90 in5.0 miEast (100°)1.2 mphScattered Clouds
11:00 PM75.2 °F73.4 °F94 %29.89 in5.0 miEast (100°)1.2 mphPartly Cloudy
11:30 PM73.4 °F73.4 °F100 %29.89 in5.0 miEast (100°)2.3 mphPartly Cloudy
Hourly data recorded from WAAA, located miles away from Hasanudin, Indonesia







STORIES FROM OUR PARTNERS